Regional Weather Roundup
Issued by NWS

Home | Current Version | Previous Version | Graphics & Text | Print | Product List | Glossary On
Versions: 1 2 3 4 5 6 7 8 9 10 11 12 13 14 15 16 17 18 19 20 21 22 23 24 25 26 27 28
000
ASUS45 KSLC 110210
RWRUT

UTAH REGIONAL WEATHER ROUNDUP
NATIONAL WEATHER SERVICE SALT LAKE CITY UT
700 PM MST SUN DEC 10 2017

UTZ001>011-023>025-110300-

NORTHERN UTAH

CITY           SKY/WX    TMP DP  RH WIND       PRES   REMARKS
BRIGHAM CITY   CLEAR     27  22  80 CALM      30.60R
HILL AFB       CLEAR     27  19  72 NE5       30.57R WCI  22
LOGAN          CLOUDY    23  18  81 W3        30.62R
OGDEN          CLEAR     27  20  75 CALM      30.58R
SALT LAKE CITY PTCLDY    29  25  85 CALM      30.58S FOG
TOOELE VALLEY  PTCLDY    18  18 100 E5        30.58S FOG     WCI  11
WENDOVER       PTCLDY    18  12  77 W3        30.58F
HEBER CITY       N/A     19  10  68 CALM      30.52F
WEST JORDAN    CLEAR     27  22  84 CALM      30.57S

$$

UTZ011>015-024>027-110300-

CENTRAL/NORTHEAST UTAH

CITY           SKY/WX    TMP DP  RH WIND       PRES   REMARKS
PROVO AIRPORT  PTCLDY    24  19  81 S3        30.58S
MOAB/CANYONLAN MOCLDY    26   2  35 CALM      30.50S
DELTA          MOCLDY    28  12  50 W3        30.56S
PRICE          PTCLDY    28   1  31 NE7       30.50S WCI  21
RICHFIELD      CLEAR     21   5  49 SW3       30.55S
ROOSEVELT      CLOUDY    19   5  53 CALM      30.56S
VERNAL         CLOUDY    20   7  57 W3        30.52F

$$

UTZ013>016-019>022-027-110300-

SOUTHERN UTAH

CITY           SKY/WX    TMP DP  RH WIND       PRES   REMARKS
BRYCE CANYON   CLEAR     22 -13  21 W10       30.53R WCI  11
CEDAR CITY     PTCLDY    27  10  49 SE6       30.50S WCI  20
MILFORD        PTCLDY    21  10  62 NE5       30.54R WCI  15
ST GEORGE      PTCLDY    47   8  20 NW3       30.42R
HANKSVILLE     MOCLDY    28   3  34 NE6       30.53S WCI  22
KANAB          CLEAR     43  -4  14 N13       30.49R
BLANDING         N/A     33   1  25 E3        30.55R

$$

REGIONAL REPORTS     COLORADO/ARIZONA

CITY           SKY/WX    TMP DP  RH WIND       PRES   REMARKS
CRAIG, CO      CLOUDY    14   8  77 CALM      30.53R
GRAND JUNCTION CLOUDY    28   3  34 CALM      30.49S
RIFLE, CO      CLOUDY    28   3  34 E6        30.51S WCI  22
MONTROSE, CO   CLOUDY    24   1  36 SE9       30.54R WCI  14
CORTEZ, CO     CLOUDY    20   0  41 NE12      30.49R WCI   8
COLORADO CITY    N/A     28  -6  22 SE3       30.47R
PAGE, AZ       PTCLDY    38  15  39 CALM      30.48R
GRAND CANYON   MOCLDY    23  -3  32 NE9       30.48R WCI  13
KINGMAN, AZ    MOCLDY    44   3  18 E8        30.33R
FLAGSTAFF, AZ  MOCLDY    37  -7  15 E9        30.46S WCI  30

$$

REGIONAL REPORTS    NEVADA/IDAHO/WYOMING

CITY           SKY/WX    TMP DP  RH WIND       PRES   REMARKS
LAS VEGAS, NV  CLOUDY    55   7  14 S5        30.31S
ELY, NY        PTCLDY    16  -4  41 S5        30.54R WCI   9
ELKO, NV       PTCLDY    26  19  74 CALM      30.52S
POCATELLO, ID  CLOUDY    17  12  80 CALM      30.58S
BURLEY, ID     CLEAR     23  20  88 CALM      30.56F
FORT BRIDGER,    N/A     32   8  37 W10       30.55R WCI  23
EVANSTON, WY   CLOUDY    31  16  54 N8        30.55R WCI  23
ROCK SPRINGS,  CLOUDY    35   4  27 SW18      30.48R WCI  24

$$




USA.gov is the U.S. government's official web portal to all federal, state and local government web resources and services.